Zurück zum Katalog

STARLINK-37151

AktivKommunikationVLEO
NORAD 68290·PAYLOAD·🇺🇸 United States

Gestartet Mar 19, 2026 von Vandenberg Space Force Base

Loading…

Nächste Überflüge (nächste 24 Stunden)

TLE

AktuellSource: CelesTrak SupGP

Epoche: Sep 14, 2026, 23:30 UTC

1 68290C 26055AE  26257.97965278 -.00077049  00000+0 -22759-2 0  2570
2 68290  53.1579 155.6814 0001318  88.1062 264.2816 15.34436601    18

Verfolge STARLINK-37151 in Echtzeit mit AllMySat

Download on the App Store